QPF
0.01 0.02 0.02 0.03 0.04 0.05 0.04 0.03 0.02 0.01 0.01 0.00 0.01 0.02 0.03 0.07 0.11 0.17 0.23 0.27 0.32 0.35 0.33 0.28 0.22 0.17 0.14 0.11 0.08 0.08 0.07 0.06 0.06 0.06 0.06 0.04 0.04 0.04 0.03 0.02 0.02 0.00 0.00
0.01 0.01 0.02 0.02 0.03 0.03 0.03 0.02 0.01 0.00 0.00 0.00 0.01 0.02 0.03 0.05 0.08 0.14 0.19 0.22 0.28 0.32 0.32 0.27 0.21 0.17 0.14 0.11 0.07 0.06 0.05 0.04 0.03 0.03 0.03 0.03 0.02 0.02 0.01 0.01 0.00 0.00 0.00
0.00 0.01 0.01 0.02 0.02 0.02 0.02 0.01 0.01 0.01 0.01 0.01 0.01 0.01 0.03 0.03 0.05 0.09 0.13 0.15 0.18 0.22 0.26 0.24 0.19 0.16 0.13 0.10 0.08 0.07 0.06 0.04 0.03 0.02 0.01 0.01 0.01 0.01 0.00 0.00 0.00 0.00 0.00
0.00 0.00 0.01 0.01 0.01 0.00 0.00 0.00 0.00 0.00 0.00 0.00 0.00 0.00 0.01 0.02 0.03 0.04 0.06 0.07 0.09 0.13 0.15 0.16 0.15 0.13 0.12 0.12 0.08 0.07 0.06 0.05 0.03 0.02 0.02 0.01 0.01 0.00 0.00 0.00 0.00 0.00 0.00
0.00 0.00 0.00 0.00 0.00 0.00 0.00 0.00 0.00 0.00 0.00 0.00 0.00 0.00 0.00 0.00 0.01 0.01 0.02 0.03 0.05 0.07 0.09 0.10 0.12 0.12 0.11 0.11 0.10 0.08 0.06 0.05 0.03 0.02 0.02 0.01 0.01 0.00 0.00 0.00 0.00 0.00 0.00
0.00 0.00 0.00 0.00 0.00 0.00 0.00 0.00 0.00 0.00 0.00 0.00 0.00 0.00 0.00 0.00 0.00 0.00 0.01 0.01 0.02 0.04 0.06 0.07 0.09 0.11 0.12 0.12 0.11 0.08 0.06 0.04 0.04 0.03 0.02 0.01 0.01 0.01 0.00 0.00 0.00 0.00 0.00
0.00 0.00 0.00 0.00 0.00 0.00 0.00 0.00 0.00 0.00 0.00 0.00 0.00 0.00 0.00 0.00 0.00 0.00 0.00 0.00 0.01 0.02 0.03 0.04 0.05 0.07 0.09 0.12 0.12 0.11 0.08 0.07 0.06 0.04 0.03 0.02 0.00 0.00 0.00 0.00 0.00 0.00 0.00
0.00 0.00 0.00 0.00 0.00 0.00 0.00 0.00 0.00 0.00 0.00 0.00 0.00 0.00 0.00 0.00 0.00 0.00 0.00 0.00 0.00 0.00 0.01 0.02 0.03 0.04 0.05 0.08 0.11 0.13 0.12 0.11 0.09 0.06 0.05 0.03 0.01 0.01 0.00 0.00 0.00 0.00 0.00
0.00 0.00 0.00 0.00 0.00 0.00 0.00 0.00 0.00 0.00 0.00 0.00 0.00 0.00 0.00 0.00 0.00 0.00 0.00 0.00 0.00 0.00 0.00 0.00 0.01 0.03 0.04 0.06 0.09 0.12 0.14 0.14 0.14 0.13 0.10 0.07 0.04 0.02 0.01 0.01 0.00 0.00 0.01
0.00 0.00 0.00 0.00 0.00 0.00 0.00 0.00 0.00 0.00 0.00 0.00 0.00 0.00 0.00 0.00 0.00 0.00 0.00 0.00 0.00 0.00 0.00 0.00 0.00 0.01 0.02 0.04 0.06 0.09 0.14 0.16 0.18 0.20 0.18 0.13 0.09 0.05 0.03 0.01 0.01 0.00 0.01
0.00 0.00 0.00 0.00 0.00 0.00 0.00 0.00 0.00 0.00 0.00 0.00 0.00 0.00 0.00 0.00 0.00 0.00 0.00 0.00 0.00 0.00 0.00 0.00 0.00 0.00 0.00 0.01 0.03 0.06 0.09 0.14 0.19 0.23 0.24 0.20 0.15 0.11 0.07 0.04 0.02 0.01 0.01
0.00 0.00 0.00 0.00 0.00 0.00 0.00 0.00 0.00 0.00 0.00 0.00 0.00 0.00 0.00 0.00 0.00 0.00 0.00 0.00 0.00 0.00 0.00 0.00 0.00 0.00 0.00 0.00 0.01 0.03 0.06 0.10 0.16 0.21 0.25 0.28 0.26 0.18 0.12 0.08 0.04 0.02 0.02
0.00 0.00 0.00 0.00 0.00 0.00 0.00 0.00 0.00 0.00 0.00 0.00 0.00 0.00 0.00 0.00 0.00 0.00 0.00 0.00 0.00 0.00 0.00 0.00 0.00 0.00 0.00 0.00 0.00 0.01 0.02 0.05 0.10 0.18 0.24 0.28 0.30 0.29 0.21 0.13 0.08 0.06 0.04
0.00 0.00 0.00 0.00 0.00 0.00 0.00 0.00 0.00 0.00 0.00 0.00 0.00 0.00 0.00 0.00 0.00 0.00 0.01 0.01 0.01 0.01 0.01 0.00 0.00 0.00 0.00 0.00 0.00 0.00 0.00 0.01 0.03 0.09 0.18 0.27 0.33 0.34 0.31 0.25 0.17 0.11 0.08
0.00 0.00 0.00 0.00 0.00 0.00 0.00 0.00 0.00 0.00 0.00 0.00 0.00 0.00 0.00 0.01 0.01 0.01 0.01 0.01 0.01 0.01 0.01 0.01 0.01 0.01 0.00 0.00 0.00 0.00 0.00 0.00 0.01 0.03 0.08 0.17 0.27 0.35 0.38 0.33 0.26 0.20 0.12
0.00 0.00 0.00 0.00 0.00 0.00 0.00 0.00 0.00 0.00 0.00 0.00 0.00 0.00 0.01 0.01 0.01 0.02 0.02 0.02 0.02 0.02 0.03 0.02 0.02 0.02 0.01 0.00 0.00 0.00 0.00 0.01 0.01 0.01 0.03 0.06 0.14 0.24 0.34 0.38 0.34 0.28 0.21
0.00 0.00 0.00 0.00 0.00 0.00 0.00 0.00 0.00 0.00 0.00 0.01 0.01 0.01 0.01 0.02 0.02 0.02 0.03 0.04 0.05 0.05 0.05 0.05 0.05 0.04 0.03 0.01 0.01 0.00 0.01 0.01 0.01 0.01 0.01 0.02 0.05 0.10 0.19 0.31 0.38 0.33 0.24
0.00 0.00 0.00 0.00 0.00 0.00 0.00 0.00 0.00 0.00 0.01 0.01 0.01 0.01 0.02 0.03 0.03 0.04 0.05 0.06 0.07 0.08 0.08 0.08 0.07 0.07 0.05 0.03 0.01 0.01 0.01 0.01 0.02 0.02 0.01 0.01 0.02 0.04 0.08 0.16 0.28 0.33 0.28
0.00 0.00 0.00 0.00 0.00 0.00 0.00 0.00 0.00 0.01 0.01 0.01 0.02 0.02 0.03 0.04 0.04 0.05 0.07 0.08 0.09 0.09 0.10 0.10 0.09 0.09 0.08 0.05 0.02 0.01 0.02 0.02 0.02 0.02 0.01 0.01 0.01 0.02 0.04 0.08 0.14 0.22 0.28
0.00 0.00 0.00 0.00 0.00 0.00 0.00 0.00 0.01 0.01 0.01 0.01 0.02 0.02 0.04 0.05 0.05 0.06 0.08 0.09 0.10 0.10 0.11 0.11 0.10 0.09 0.08 0.06 0.03 0.02 0.03 0.03 0.03 0.03 0.02 0.01 0.01 0.01 0.01 0.04 0.08 0.13 0.17
0.00 0.00 0.00 0.00 0.00 0.00 0.00 0.01 0.01 0.01 0.01 0.01 0.01 0.02 0.03 0.04 0.05 0.06 0.07 0.09 0.09 0.09 0.10 0.10 0.10 0.09 0.08 0.07 0.04 0.03 0.04 0.04 0.04 0.03 0.03 0.02 0.00 0.00 0.00 0.02 0.05 0.09 0.13
0.00 0.00 0.00 0.00 0.00 0.00 0.01 0.01 0.01 0.01 0.01 0.01 0.01 0.02 0.02 0.03 0.03 0.05 0.05 0.07 0.08 0.08 0.09 0.09 0.09 0.08 0.07 0.06 0.04 0.02 0.02 0.03 0.05 0.04 0.03 0.02 0.00 0.00 0.00 0.01 0.03 0.07 0.11
0.00 0.00 0.00 0.00 0.00 0.00 0.01 0.01 0.01 0.01 0.01 0.01 0.01 0.02 0.02 0.03 0.04 0.05 0.05 0.06 0.07 0.08 0.08 0.08 0.09 0.08 0.07 0.06 0.03 0.02 0.01 0.01 0.03 0.04 0.03 0.02 0.00 0.00 0.01 0.01 0.03 0.05 0.08
0.00 0.00 0.00 0.00 0.00 0.00 0.00 0.01 0.01 0.01 0.01 0.01 0.01 0.02 0.02 0.02 0.03 0.04 0.05 0.06 0.06 0.07 0.07 0.07 0.07 0.07 0.07 0.07 0.06 0.04 0.02 0.01 0.01 0.02 0.02 0.00 0.00 0.01 0.01 0.02 0.03 0.05 0.08
0.00 0.00 0.00 0.00 0.00 0.00 0.00 0.01 0.01 0.01 0.01 0.01 0.02 0.02 0.02 0.02 0.02 0.03 0.03 0.03 0.04 0.04 0.04 0.05 0.07 0.07 0.08 0.06 0.04 0.06 0.06 0.04 0.03 0.03 0.04 0.02 0.01 0.01 0.02 0.04 0.05 0.07 0.11
0.00 0.00 0.00 0.00 0.00 0.00 0.00 0.00 0.01 0.01 0.01 0.02 0.02 0.01 0.02 0.02 0.02 0.03 0.03 0.02 0.01 0.01 0.01 0.02 0.03 0.04 0.03 0.02 0.01 0.01 0.01 0.01 0.01 0.02 0.04 0.04 0.02 0.02 0.04 0.07 0.07 0.10 0.13
MSLP
1015.80 1015.69 1015.51 1015.28 1015.01 1014.71 1014.41 1014.12 1013.85 1013.61 1013.38 1013.16 1012.92 1012.65 1012.36 1012.03 1011.69 1011.33 1010.97 1010.63 1010.30 1010.00 1009.74 1009.52 1009.36 1009.27 1009.27 1009.36 1009.53 1009.78 1010.07 1010.36 1010.62 1010.80 1010.90 1010.90 1010.81 1010.67 1010.51 1010.38 1010.31 1010.33 1010.43
1015.50 1015.38 1015.22 1015.01 1014.76 1014.49 1014.22 1013.97 1013.74 1013.54 1013.35 1013.15 1012.93 1012.67 1012.37 1012.03 1011.67 1011.30 1010.93 1010.59 1010.28 1010.01 1009.78 1009.59 1009.45 1009.37 1009.35 1009.40 1009.52 1009.70 1009.91 1010.14 1010.34 1010.49 1010.58 1010.58 1010.51 1010.39 1010.25 1010.12 1010.04 1010.02 1010.07
1014.99 1014.89 1014.76 1014.60 1014.40 1014.19 1013.99 1013.80 1013.63 1013.47 1013.32 1013.15 1012.93 1012.67 1012.36 1012.01 1011.63 1011.26 1010.90 1010.58 1010.30 1010.07 1009.89 1009.74 1009.64 1009.56 1009.53 1009.54 1009.60 1009.69 1009.82 1009.96 1010.10 1010.21 1010.27 1010.28 1010.24 1010.16 1010.06 1009.96 1009.89 1009.86 1009.88
1014.44 1014.38 1014.30 1014.19 1014.06 1013.92 1013.78 1013.65 1013.53 1013.42 1013.30 1013.14 1012.93 1012.67 1012.34 1011.98 1011.59 1011.22 1010.87 1010.57 1010.34 1010.16 1010.03 1009.94 1009.86 1009.81 1009.76 1009.73 1009.72 1009.73 1009.76 1009.81 1009.88 1009.93 1009.97 1009.99 1009.98 1009.94 1009.90 1009.85 1009.82 1009.81 1009.83
1014.01 1013.98 1013.94 1013.89 1013.81 1013.72 1013.63 1013.55 1013.46 1013.37 1013.26 1013.11 1012.90 1012.62 1012.29 1011.92 1011.53 1011.16 1010.83 1010.57 1010.37 1010.24 1010.16 1010.11 1010.07 1010.02 1009.97 1009.90 1009.83 1009.76 1009.71 1009.68 1009.67 1009.67 1009.68 1009.70 1009.72 1009.73 1009.74 1009.75 1009.77 1009.79 1009.83
1013.78 1013.78 1013.77 1013.74 1013.69 1013.63 1013.55 1013.47 1013.39 1013.30 1013.18 1013.02 1012.80 1012.52 1012.18 1011.81 1011.42 1011.06 1010.76 1010.52 1010.35 1010.26 1010.21 1010.19 1010.18 1010.14 1010.08 1009.99 1009.87 1009.75 1009.63 1009.53 1009.46 1009.42 1009.40 1009.41 1009.44 1009.48 1009.54 1009.60 1009.67 1009.74 1009.81
1013.76 1013.77 1013.76 1013.73 1013.68 1013.60 1013.50 1013.40 1013.30 1013.18 1013.03 1012.85 1012.62 1012.34 1012.00 1011.64 1011.27 1010.92 1010.62 1010.40 1010.25 1010.17 1010.14 1010.14 1010.13 1010.11 1010.04 1009.94 1009.81 1009.66 1009.50 1009.36 1009.25 1009.17 1009.13 1009.12 1009.15 1009.20 1009.28 1009.37 1009.48 1009.60 1009.72
1013.90 1013.90 1013.88 1013.82 1013.72 1013.60 1013.45 1013.30 1013.14 1012.98 1012.81 1012.61 1012.36 1012.08 1011.76 1011.40 1011.05 1010.71 1010.42 1010.20 1010.04 1009.96 1009.92 1009.91 1009.90 1009.88 1009.82 1009.73 1009.61 1009.46 1009.30 1009.15 1009.03 1008.93 1008.86 1008.83 1008.84 1008.88 1008.95 1009.06 1009.18 1009.33 1009.50
1014.11 1014.09 1014.02 1013.92 1013.77 1013.57 1013.36 1013.15 1012.93 1012.72 1012.51 1012.29 1012.04 1011.77 1011.46 1011.12 1010.77 1010.44 1010.15 1009.90 1009.73 1009.61 1009.54 1009.51 1009.49 1009.46 1009.42 1009.35 1009.25 1009.14 1009.02 1008.89 1008.77 1008.67 1008.59 1008.54 1008.52 1008.52 1008.57 1008.66 1008.78 1008.95 1009.15
1014.28 1014.23 1014.13 1013.97 1013.75 1013.50 1013.22 1012.94 1012.67 1012.42 1012.18 1011.94 1011.69 1011.42 1011.12 1010.80 1010.46 1010.12 1009.81 1009.53 1009.30 1009.14 1009.02 1008.94 1008.90 1008.87 1008.84 1008.81 1008.76 1008.70 1008.63 1008.56 1008.48 1008.39 1008.31 1008.24 1008.18 1008.15 1008.15 1008.20 1008.31 1008.48 1008.70
1014.34 1014.27 1014.13 1013.93 1013.67 1013.36 1013.03 1012.70 1012.39 1012.10 1011.84 1011.59 1011.34 1011.08 1010.78 1010.46 1010.11 1009.76 1009.41 1009.09 1008.80 1008.57 1008.39 1008.27 1008.19 1008.15 1008.13 1008.13 1008.14 1008.15 1008.15 1008.14 1008.11 1008.06 1008.00 1007.92 1007.83 1007.76 1007.72 1007.73 1007.81 1007.97 1008.21
1014.29 1014.19 1014.03 1013.80 1013.50 1013.16 1012.81 1012.45 1012.12 1011.81 1011.54 1011.28 1011.02 1010.75 1010.45 1010.11 1009.75 1009.36 1008.97 1008.59 1008.24 1007.94 1007.70 1007.52 1007.41 1007.35 1007.34 1007.37 1007.43 1007.50 1007.57 1007.63 1007.66 1007.66 1007.62 1007.55 1007.46 1007.37 1007.30 1007.28 1007.34 1007.49 1007.73
1014.13 1014.03 1013.85 1013.60 1013.30 1012.94 1012.58 1012.21 1011.87 1011.56 1011.27 1011.00 1010.72 1010.43 1010.11 1009.74 1009.34 1008.91 1008.47 1008.04 1007.63 1007.27 1006.97 1006.74 1006.59 1006.51 1006.49 1006.54 1006.63 1006.75 1006.88 1007.00 1007.10 1007.16 1007.17 1007.13 1007.06 1006.98 1006.91 1006.88 1006.93 1007.07 1007.33
1013.93 1013.82 1013.63 1013.38 1013.06 1012.72 1012.35 1011.99 1011.65 1011.33 1011.03 1010.74 1010.43 1010.10 1009.74 1009.33 1008.89 1008.41 1007.92 1007.43 1006.98 1006.56 1006.22 1005.95 1005.76 1005.65 1005.63 1005.68 1005.78 1005.93 1006.11 1006.28 1006.43 1006.55 1006.62 1006.64 1006.63 1006.59 1006.55 1006.54 1006.61 1006.76 1007.02
1013.74 1013.60 1013.40 1013.14 1012.83 1012.49 1012.13 1011.78 1011.44 1011.11 1010.79 1010.46 1010.12 1009.74 1009.32 1008.86 1008.36 1007.83 1007.29 1006.77 1006.27 1005.83 1005.45 1005.15 1004.93 1004.81 1004.76 1004.80 1004.91 1005.07 1005.26 1005.47 1005.68 1005.86 1006.00 1006.10 1006.16 1006.19 1006.22 1006.27 1006.37 1006.54 1006.81
1013.57 1013.41 1013.18 1012.90 1012.59 1012.24 1011.89 1011.54 1011.20 1010.86 1010.52 1010.15 1009.76 1009.32 1008.84 1008.31 1007.75 1007.18 1006.60 1006.04 1005.53 1005.06 1004.67 1004.36 1004.13 1003.99 1003.93 1003.94 1004.04 1004.19 1004.39 1004.63 1004.87 1005.11 1005.33 1005.52 1005.68 1005.80 1005.92 1006.04 1006.19 1006.40 1006.67
1013.43 1013.23 1012.96 1012.66 1012.32 1011.97 1011.62 1011.27 1010.92 1010.57 1010.19 1009.79 1009.34 1008.84 1008.29 1007.70 1007.09 1006.47 1005.86 1005.28 1004.76 1004.30 1003.91 1003.60 1003.37 1003.22 1003.15 1003.15 1003.22 1003.36 1003.56 1003.81 1004.08 1004.38 1004.67 1004.94 1005.20 1005.43 1005.64 1005.84 1006.05 1006.29 1006.58
1013.29 1013.03 1012.72 1012.38 1012.02 1011.65 1011.29 1010.94 1010.58 1010.21 1009.81 1009.37 1008.87 1008.32 1007.71 1007.07 1006.40 1005.74 1005.11 1004.53 1004.01 1003.56 1003.19 1002.90 1002.68 1002.54 1002.46 1002.46 1002.52 1002.64 1002.83 1003.08 1003.38 1003.71 1004.06 1004.41 1004.75 1005.07 1005.37 1005.64 1005.91 1006.18 1006.47
1013.12 1012.80 1012.44 1012.05 1011.66 1011.28 1010.91 1010.56 1010.20 1009.82 1009.40 1008.93 1008.40 1007.80 1007.15 1006.45 1005.75 1005.06 1004.41 1003.82 1003.32 1002.89 1002.55 1002.29 1002.11 1001.98 1001.92 1001.92 1001.97 1002.09 1002.27 1002.51 1002.82 1003.17 1003.55 1003.95 1004.35 1004.74 1005.09 1005.42 1005.72 1006.01 1006.29
1012.88 1012.51 1012.10 1011.68 1011.27 1010.87 1010.50 1010.15 1009.80 1009.42 1009.00 1008.51 1007.95 1007.32 1006.63 1005.90 1005.16 1004.45 1003.80 1003.22 1002.73 1002.33 1002.03 1001.82 1001.67 1001.58 1001.55 1001.56 1001.61 1001.73 1001.90 1002.13 1002.42 1002.77 1003.16 1003.57 1004.00 1004.40 1004.79 1005.14 1005.45 1005.74 1006.02
1012.57 1012.16 1011.72 1011.28 1010.85 1010.46 1010.09 1009.75 1009.41 1009.04 1008.62 1008.13 1007.55 1006.90 1006.18 1005.43 1004.67 1003.95 1003.29 1002.72 1002.26 1001.90 1001.65 1001.48 1001.39 1001.35 1001.35 1001.38 1001.45 1001.56 1001.71 1001.92 1002.19 1002.50 1002.86 1003.25 1003.66 1004.05 1004.43 1004.77 1005.08 1005.36 1005.62
1012.21 1011.78 1011.33 1010.88 1010.46 1010.07 1009.72 1009.40 1009.07 1008.71 1008.29 1007.79 1007.20 1006.53 1005.80 1005.03 1004.26 1003.53 1002.88 1002.34 1001.91 1001.60 1001.39 1001.29 1001.25 1001.26 1001.30 1001.36 1001.43 1001.54 1001.67 1001.84 1002.05 1002.31 1002.62 1002.95 1003.30 1003.65 1003.98 1004.29 1004.58 1004.84 1005.10
1011.84 1011.41 1010.96 1010.52 1010.11 1009.75 1009.42 1009.10 1008.78 1008.42 1007.99 1007.48 1006.88 1006.19 1005.43 1004.65 1003.88 1003.16 1002.53 1002.02 1001.63 1001.38 1001.23 1001.19 1001.21 1001.27 1001.35 1001.43 1001.51 1001.59 1001.69 1001.81 1001.95 1002.13 1002.35 1002.60 1002.87 1003.15 1003.43 1003.70 1003.96 1004.22 1004.48
1011.49 1011.07 1010.64 1010.23 1009.85 1009.50 1009.18 1008.87 1008.54 1008.16 1007.70 1007.16 1006.52 1005.80 1005.03 1004.24 1003.47 1002.78 1002.18 1001.72 1001.39 1001.20 1001.12 1001.14 1001.22 1001.32 1001.43 1001.52 1001.60 1001.65 1001.69 1001.74 1001.80 1001.89 1002.02 1002.17 1002.36 1002.57 1002.79 1003.02 1003.26 1003.52 1003.80
1011.19 1010.79 1010.39 1010.01 1009.66 1009.32 1009.00 1008.68 1008.31 1007.89 1007.38 1006.78 1006.10 1005.34 1004.54 1003.75 1002.99 1002.33 1001.78 1001.38 1001.13 1001.01 1001.00 1001.09 1001.22 1001.36 1001.48 1001.57 1001.62 1001.63 1001.60 1001.57 1001.54 1001.54 1001.57 1001.64 1001.75 1001.90 1002.09 1002.30 1002.54 1002.81 1003.12
1010.92 1010.56 1010.20 1009.86 1009.52 1009.20 1008.86 1008.50 1008.08 1007.58 1007.00 1006.33 1005.57 1004.77 1003.94 1003.15 1002.42 1001.80 1001.32 1000.99 1000.82 1000.78 1000.85 1001.00 1001.17 1001.33 1001.46 1001.52 1001.53 1001.47 1001.38 1001.26 1001.15 1001.07 1001.02 1001.03 1001.09 1001.21 1001.38 1001.60 1001.86 1002.17 1002.52
Thickness
5734 5735 5734 5733 5732 5729 5726 5723 5721 5719 5719 5719 5719 5719 5719 5719 5718 5716 5714 5713 5712 5712 5709 5708 5708 5709 5711 5715 5719 5719 5718 5719 5721 5720 5721 5727 5731 5733 5734 5736 5737 5740 5739
5727 5726 5725 5724 5722 5718 5716 5713 5711 5709 5708 5707 5706 5707 5706 5708 5708 5705 5704 5704 5704 5703 5704 5701 5701 5702 5703 5708 5712 5711 5711 5715 5716 5714 5714 5717 5723 5727 5733 5734 5734 5736 5739
5720 5718 5716 5714 5712 5709 5707 5705 5701 5698 5696 5695 5697 5697 5697 5698 5697 5695 5694 5693 5692 5692 5693 5693 5694 5696 5699 5701 5703 5705 5703 5704 5709 5712 5712 5712 5715 5726 5729 5730 5732 5733 5735
5715 5713 5710 5707 5705 5702 5700 5696 5692 5689 5686 5685 5684 5682 5680 5680 5681 5681 5682 5682 5681 5682 5683 5684 5687 5690 5693 5694 5696 5699 5699 5697 5700 5705 5707 5712 5716 5714 5720 5722 5727 5728 5728
5711 5707 5704 5701 5699 5696 5693 5689 5684 5679 5676 5673 5671 5669 5669 5669 5670 5670 5670 5670 5671 5672 5673 5674 5676 5679 5682 5684 5687 5689 5690 5692 5695 5699 5702 5704 5705 5707 5709 5715 5719 5722 5727
5706 5702 5700 5696 5692 5690 5685 5681 5675 5670 5666 5663 5661 5658 5656 5655 5655 5655 5656 5658 5660 5661 5662 5663 5664 5666 5669 5672 5675 5678 5681 5684 5688 5693 5697 5699 5701 5703 5706 5708 5711 5716 5723
5701 5696 5692 5688 5684 5680 5676 5672 5666 5661 5658 5654 5651 5648 5646 5644 5643 5644 5646 5645 5648 5649 5649 5650 5651 5654 5657 5660 5662 5667 5672 5676 5679 5683 5688 5694 5699 5703 5705 5706 5709 5712 5717
5695 5690 5685 5681 5677 5672 5667 5662 5657 5652 5648 5645 5642 5639 5636 5636 5637 5636 5634 5634 5635 5637 5637 5637 5638 5641 5644 5648 5651 5655 5660 5666 5670 5675 5679 5684 5692 5697 5699 5701 5703 5703 5708
5689 5684 5679 5674 5669 5663 5657 5652 5647 5642 5639 5636 5633 5630 5628 5626 5625 5624 5623 5625 5625 5625 5626 5626 5627 5629 5631 5634 5638 5642 5647 5652 5659 5665 5669 5674 5682 5688 5693 5696 5699 5699 5700
5683 5677 5671 5666 5660 5654 5648 5644 5638 5633 5630 5627 5624 5623 5620 5618 5616 5614 5614 5612 5612 5612 5612 5613 5615 5616 5619 5622 5624 5629 5634 5639 5645 5651 5658 5664 5671 5678 5683 5688 5692 5695 5697
5674 5668 5662 5657 5650 5645 5640 5635 5630 5625 5622 5619 5615 5612 5610 5608 5606 5604 5603 5602 5601 5600 5600 5601 5602 5604 5607 5610 5613 5617 5621 5626 5631 5637 5645 5653 5659 5665 5673 5678 5683 5688 5691
5666 5660 5654 5647 5641 5635 5631 5625 5621 5617 5613 5610 5606 5603 5600 5596 5594 5592 5590 5588 5586 5586 5586 5588 5589 5591 5594 5597 5600 5604 5609 5613 5619 5625 5630 5638 5646 5653 5660 5667 5673 5679 5684
5660 5653 5645 5638 5632 5626 5621 5616 5612 5608 5605 5601 5596 5592 5588 5584 5581 5577 5574 5571 5570 5569 5569 5571 5573 5576 5579 5583 5586 5590 5595 5601 5607 5613 5619 5625 5631 5639 5648 5655 5663 5670 5675
5652 5644 5637 5631 5624 5618 5613 5608 5604 5600 5596 5591 5586 5581 5576 5572 5567 5562 5558 5554 5552 5551 5551 5553 5556 5560 5563 5568 5573 5577 5582 5587 5593 5600 5606 5613 5618 5626 5634 5643 5651 5658 5664
5645 5637 5630 5624 5617 5612 5606 5602 5597 5592 5587 5581 5576 5571 5566 5560 5554 5548 5543 5538 5535 5533 5533 5535 5539 5543 5548 5554 5560 5564 5569 5573 5579 5586 5594 5601 5607 5614 5620 5628 5637 5645 5652
5639 5632 5625 5618 5612 5606 5600 5595 5590 5585 5579 5573 5568 5562 5555 5549 5542 5536 5529 5524 5520 5517 5516 5517 5521 5527 5534 5540 5543 5548 5555 5562 5567 5574 5581 5589 5595 5601 5607 5614 5623 5632 5641
5632 5626 5619 5613 5606 5601 5594 5589 5583 5578 5572 5566 5559 5553 5546 5539 5532 5525 5518 5512 5507 5503 5502 5503 5506 5510 5516 5521 5526 5530 5540 5549 5557 5564 5570 5579 5588 5591 5598 5604 5610 5619 5628
5627 5621 5614 5609 5603 5596 5589 5583 5576 5570 5565 5559 5553 5545 5538 5532 5524 5517 5510 5503 5497 5493 5492 5493 5495 5498 5503 5506 5511 5517 5526 5538 5547 5554 5560 5567 5575 5583 5589 5597 5604 5612 5620
5622 5615 5608 5603 5597 5590 5584 5577 5570 5565 5559 5554 5546 5538 5531 5525 5518 5511 5504 5498 5491 5487 5485 5486 5488 5491 5494 5496 5500 5505 5519 5529 5539 5547 5554 5560 5567 5573 5578 5587 5597 5606 5614
5618 5611 5604 5598 5592 5585 5577 5570 5565 5560 5554 5548 5539 5532 5525 5520 5514 5507 5500 5494 5488 5484 5482 5483 5485 5487 5490 5490 5493 5497 5512 5524 5534 5541 5549 5552 5559 5563 5566 5576 5587 5597 5606
5615 5608 5600 5593 5586 5579 5571 5565 5560 5555 5549 5542 5535 5528 5522 5517 5512 5506 5499 5492 5487 5483 5480 5481 5483 5485 5487 5487 5489 5493 5506 5519 5528 5538 5545 5552 5551 5555 5559 5566 5578 5588 5596
5612 5604 5596 5589 5582 5574 5567 5561 5556 5551 5545 5539 5533 5527 5522 5517 5513 5506 5500 5494 5488 5484 5482 5482 5483 5484 5486 5487 5490 5493 5499 5510 5523 5532 5541 5548 5546 5548 5552 5559 5569 5575 5583
5608 5600 5592 5585 5577 5570 5562 5557 5553 5548 5542 5537 5532 5527 5523 5518 5513 5507 5502 5497 5492 5488 5486 5484 5484 5486 5488 5489 5490 5492 5497 5504 5515 5527 5533 5537 5539 5542 5548 5552 5559 5566 5577
5604 5596 5588 5580 5574 5567 5561 5555 5551 5545 5539 5535 5531 5528 5525 5520 5515 5509 5505 5500 5496 5492 5490 5488 5487 5488 5490 5493 5495 5498 5500 5502 5511 5521 5526 5528 5533 5540 5548 5553 5556 5565 5576
5600 5592 5583 5576 5570 5565 5559 5555 5550 5544 5538 5535 5532 5529 5526 5522 5517 5513 5507 5502 5498 5492 5489 5490 5489 5490 5492 5493 5493 5500 5506 5511 5518 5523 5526 5533 5540 5544 5550 5556 5562 5567 5573
5596 5589 5581 5574 5568 5563 5558 5554 5549 5543 5538 5536 5533 5530 5527 5524 5521 5517 5513 5503 5496 5489 5485 5484 5484 5489 5487 5488 5491 5494 5498 5503 5510 5517 5527 5534 5541 5547 5553 5557 5562 5566 5572